Location: Newark
(45.5000°N, 11.4167°E)
Time: 21:10:19
(UTC+00:00)

Transit 2A Rocket - Pass Details

Date: 03 September 2019
Orbit: 592 x 911 km, 66.7° (Epoch: 14 September)

Event Time Altitude Azimuth Distance (km) Brightness Sun altitude
Rises 16:14:22 0° 227° (SW) 3,406 9.2 15.7°
Reaches altitude 10° 16:17:00 10° 233° (SW) 2,430 8.7 15.3°
Maximum altitude 16:22:25 50° 308° (NW) 992 6.3 14.3°
Drops below altitude 10° 16:27:24 10° 24° (NNE) 2,234 7.2 13.4°
Sets 16:29:44 0° 30° (NNE) 3,107 7.8 13.0°
